Tracking 25193 objects as of 18-Jan-2022
HD Live streaming from Space Station
objects crossing your sky now

EKRAN 6

Track EKRAN 6 now!
EKRAN 6 is classified as:


NORAD ID: 12120
Int'l Code: 1980-104A
Perigee: 35,767.3 km
Apogee: 35,823.3 km
Inclination: 10.0 °
Period: 1,436.2 minutes
Semi major axis: 42166 km
RCS: 6.3095 m2 (large)
Launch date: December 26, 1980
Source: Commonwealth of Independent States (former USSR) (CIS)
Launch site: TYURATAM MISSILE AND SPACE COMPLEX (TTMTR)
aabbcc
Your satellite tracking list
Your tracking list is empty




NASA's NSSDC Master Catalog

Two Line Element Set (TLE):
1 12120U 80104A   22017.17288716  .00000124  00000-0  00000-0 0  9998
2 12120  10.0397 307.1222 0006642  42.9530 240.6045  1.00266357111246
Source of the keplerian elements: AFSPC